Regional Weather Roundup
Issued by NWS

Home | Current Version | Previous Version | Graphics & Text | Print | Product List | Glossary On
Versions: 1 2 3 4 5 6 7 8 9 10 11 12 13 14 15 16 17 18 19 20 21 22 23 24 25 26 27 28 29 30 31 32 33 34 35 36 37 38 39 40 41 42 43 44 45 46 47 48 49 50
000
ASUS43 KMPX 281201
RWRMN
WEATHER ROUNDUP FOR MINNESOTA
NATIONAL WEATHER SERVICE TWIN CITIES/CHANHASSEN MN
700 AM CDT WED JUN 28 2017


NOTE: "FAIR" INDICATES FEW OR NO CLOUDS BELOW 12,000 FEET WITH NO
SIGNIFICANT WEATHER AND/OR OBSTRUCTIONS TO VISIBILITY. N/A MEANS
CURRENT SKY AND/OR WEATHER CONDITIONS ARE NOT AVAILABLE.

MNZ060>063-068>070-281300-
   Twin Cities Metro

CITY           SKY/WX    TMP DP  RH WIND       PRES   REMARKS
TWIN CITIES    LGT RAIN  63  60  90 S16G22    29.64R
6HR MIN TEMP:  61; 6HR MAX TEMP:  68; 6HR PCP:  0.56;

ST PAUL        LGT RAIN  62  62 100 SE16      29.64F FOG
CRYSTAL        LGT RAIN  62  59  90 S14       29.61F FOG
BLAINE         CLOUDY    64  64 100 SE12      29.61F
LAKEVILLE      DRIZZLE   63  63 100 SE6       29.66S
EDEN PRAIRIE   RAIN      63  60  90 SE12      29.62R FOG
6HR MIN TEMP:  62; 6HR MAX TEMP:  68; 6HR PCP:  0.76;

SOUTH ST PAUL  LGT RAIN  61  61  99 SE9G16    29.64S
$$
MNZ001>005-007-008-013>017-022>024-027-028-281300-
   Northwest Minnesota

CITY           SKY/WX    TMP DP  RH WIND       PRES   REMARKS
HALLOCK        LGT RAIN  61  59  94 CALM      29.55S
ROSEAU         RAIN      63  55  77 SW3       29.58S
WARROAD        LGT RAIN  57  54  88 CALM      29.60R
CROOKSTON      RAIN      61  59  94 E8        29.51F
FOSSTON        CLOUDY    57  55  94 NE3       29.52F
DETROIT LAKES  RAIN      59  57  94 SE15G21   29.55S
MOORHEAD       CLOUDY    68  61  77 SE13G20   29.48F
PARK RAPIDS    CLOUDY    59  54  83 SE13      29.58S
MAHNOMEN       CLOUDY    60  57  91 SE15G21   29.51S
$$
MNZ006-009>011-018-025>026-281300-
   North Central Minnesota

CITY           SKY/WX    TMP DP  RH WIND       PRES   REMARKS
BAUDETTE       CLOUDY    58  49  72 SE12      29.60F
FLAG ISLAND    CLOUDY    63  50  63 SE12      29.59S
INTL FALLS     CLOUDY    56  48  74 SE6       29.66F
6HR MIN TEMP:  51; 6HR MAX TEMP:  56;

WASKISH        LGT RAIN  57  54  88 E7        29.61F
BIG FORK       CLOUDY    54  52  94 CALM      29.65F
LONGVILLE      LGT RAIN  55  54  94 CALM      29.63S
GRAND RAPIDS   CLOUDY    55  51  86 SE5       29.66F
CRANE LAKE     CLOUDY    54  52  94 CALM      29.71F
ORR            CLOUDY    55  46  71 CALM      29.66F
COOK           CLOUDY    54  48  82 E3        29.69S
WALKER         LGT RAIN  58  54  88 E7        29.57F
$$
MNZ012-019>021-037-281300-
   Northeast Minnesota

CITY           SKY/WX    TMP DP  RH WIND       PRES   REMARKS
DULUTH         CLOUDY    57  49  74 SE8       29.70S
6HR MIN TEMP:  55; 6HR MAX TEMP:  59;

ELY            CLOUDY    55  46  71 CALM      29.72S
HIBBING        CLOUDY    53  49  86 SE5       29.68S
EVELETH        CLOUDY    55  47  73 CALM      29.71R
DULUTH HARBOR  CLOUDY    55  52  88 NE13      29.70F
TWO HARBORS    CLOUDY    55  50  82 NE3       29.71S
SILVER BAY     CLOUDY    54  50  87 NE3       29.72S
GRAND MARAIS     N/A     49  46  90 NE5       29.77F
G MARAIS ARPRT CLOUDY    55  45  67 CALM      29.79F
$$
MNZ029>031-032-039>041-046>048-054>057-064-281300-
   West Central Minnesota

CITY           SKY/WX    TMP DP  RH WIND       PRES   REMARKS
FERGUS FALLS   TSTM      63  63 100 SE20      29.49F
WHEATON        RAIN      64  61  88 SE14      29.48F
ALEXANDRIA     CLOUDY    62  61  96 SE9       29.59S
ELBOW LAKE     RAIN      62  61  97 SE13      29.54F
WADENA         RAIN      59  59 100 S20G29    29.52F
GLENWOOD       CLOUDY    63  61  94 SE12      29.59R
APPLETON       LGT RAIN  66  61  82 E8        29.51S
BENSON         PTSUNNY   64  61  88 SE9       29.56R
ORTONVILLE     PTSUNNY   66  63  88 SE8       29.49F
MADISON        PTSUNNY   70  64  83 SE9       29.50S
WILLMAR        CLOUDY    64  63  94 SE13G20   29.58R
$$
MNZ033>034-036-042>043-049>051-058-059-281300-
   Central Minnesota

CITY           SKY/WX    TMP DP  RH WIND       PRES   REMARKS
ST CLOUD       LGT RAIN  62  62 100 SE12      29.61S
6HR MIN TEMP:  60; 6HR MAX TEMP:  65; 6HR PCP:  0.36;

PAYNESVILLE    CLOUDY    62  62 100 SE12G18   29.59F
AITKIN         CLOUDY    57  52  82 E3        29.63F
PINE RIVER     RAIN      57  57 100 E9        29.66F
BRAINERD       LGT RAIN  58  55  90 E5        29.63F
STAPLES        LGT RAIN  57  55  94 E6        29.60F
LITTLE FALLS   RAIN      61  59  94 SE9       29.60S
LITCHFIELD     CLOUDY    64  63  94 SE17G23   29.58F
BUFFALO        LGT RAIN  62  59  91 SE7       29.63F
HUTCHINSON     LGT RAIN  63  63  99 E17       29.59F
$$
MNZ037-044-045-052-053-281300-
   East Central Minnesota

CITY           SKY/WX    TMP DP  RH WIND       PRES   REMARKS
PRINCETON      RAIN      64  63  94 S12       29.62S
MORA           PTSUNNY   57  50  77 E3        29.65F
CAMBRIDGE      LGT RAIN  66  61  82 S6        29.58F
RUSH CITY      LGT RAIN  61  52  72 E6        29.63F
MOOSE LAKE     CLOUDY    63  50  63 S3        29.65F
CLOQUET        CLOUDY    57  48  72 E3        29.68F
MCGREGOR       CLOUDY    59  50  72 SE7       29.66F
$$
MNZ071>073-080-081-089-090-097-098-281300-
   Southwest Minnesota

CITY           SKY/WX    TMP DP  RH WIND       PRES   REMARKS
MONTEVIDEO     CLOUDY    64  63  94 S9        29.53R
GRANITE FALLS  RAIN      66  63  89 SE14      29.57R
CANBY          CLOUDY    69  62  78 S12G22    29.52S
MARSHALL       CLOUDY    66  63  90 S22G33    29.54S
REDWOOD FALLS  CLOUDY    65  62  90 S12       29.58R
OLIVIA         CLOUDY    63  59  88 S7        29.57R
PIPESTONE      CLOUDY    66  63  88 SW20      29.59S
WINDOM         CLOUDY    66  63  88 S18G26    29.61R
WORTHINGTON    PTSUNNY   66  63  90 S17G24    29.63R
JACKSON        CLOUDY    66  63  88 SW22G31   29.65R
TRACY          CLOUDY    66  63  90 SW20G26   29.58R
SLAYTON        CLOUDY    64  61  91 S16G30    29.60S
$$
MNZ065>067-074>077-082>085-091>093-281300-
   South Central Minnesota

CITY           SKY/WX    TMP DP  RH WIND       PRES   REMARKS
MANKATO        CLOUDY    65  62  90 SE10      29.64R
NEW ULM        CLOUDY    63  63 100 SE10      29.59S
ST JAMES       LGT RAIN  66  64  94 S5        29.62R
FAIRMONT       CLOUDY    67  65  93 SW16G24   29.64R
GLENCOE        DRIZZLE   64  64 100 E12       29.60F
FARIBAULT      CLOUDY    66  63  88 S5G22     29.66R
OWATONNA       CLOUDY    64  61  88 SE21G28   29.66S
WASECA         CLOUDY    64  59  82 SE16G23   29.62F
ALBERT LEA     CLOUDY    63  61  94 SE12G17   29.65F
$$
MNZ078>079-086>088-094>096-281300-
   Southeast Minnesota

CITY           SKY/WX    TMP DP  RH WIND       PRES   REMARKS
ROCHESTER      CLOUDY    61  60  97 SE12G22   29.72F
6HR MIN TEMP:  61; 6HR MAX TEMP:  66; 6HR PCP:  0.28;

RED WING       LGT RAIN  63  57  82 SE7       29.67F
STANTON        CLOUDY    66  62  87 SE14G21   29.64F
DODGE CENTER   CLOUDY    63  59  88 SE20      29.68F
WINONA         TSTM      61  59  94 S3        29.74F
AUSTIN         CLOUDY    63  59  88 SE16      29.67F
PRESTON        CLOUDY    62  59  92 SE15G23   29.75F
$$
ABBREVIATIONS USED IN REMARKS
   TC - TEMPERATURES IN CELSIUS
  WCI - WIND CHILL INDEX
   HX - HEAT INDEX
  VSB - VISIBILITY
$$




USA.gov is the U.S. government's official web portal to all federal, state and local government web resources and services.